Location: ??????
(38.3184°N, 23.6932°E)
Time: 02:32:25
(UTC+00:00)

SL-16 R/B - Pass Details

Date: 16 October 2021
Orbit: 842 x 846 km, 71.0° (Epoch: 04 December)

Event Time Altitude Azimuth Distance (km) Brightness Sun altitude
Rises 18:01:19 0° 203° (SSW) 3,383 5.5 -27.3°
Reaches altitude 10° 18:03:45 10° 203° (SSW) 2,453 4.7 -27.7°
Enters shadow 18:09:07 80° 240° (WSW) 860 2.1 -28.8°
